Greenville, MS

8:53 AM CDT on April 24, 2018 (GMT -0500)
Mid Delta Regional

Weather History for KGLH - May, 2014

Change the Weather History Date:

Thursday, May 1, 2014

  Actual Average Record
Temperature  
Mean Temperature 56 °F 68 °F  
Max Temperature 70 °F 79 °F 95 °F (1987)
Min Temperature 41 °F 58 °F 41 °F (2014)
Degree Days  
Heating Degree Days 9 1  
Month to date heating degree days 9 1  
Since 1 July heating degree days 3184 2762  
Cooling Degree Days 0 4  
Month to date cooling degree days 0 4  
Year to date cooling degree days 74 90  
Growing Degree Days 6 (Base 50)    
Moisture  
Dew Point 41 °F    
Average Humidity 62    
Maximum Humidity 92    
Minimum Humidity 31    
Precipitation  
Precipitation 0.00 in 0.17 in 1.75 in (1957)
Month to date precipitation 0.00 0.17  
Year to date precipitation 18.88 19.52  
Sea Level Pressure  
Sea Level Pressure 30.08 in    
Wind  
Wind Speed 6 mph (WSW)    
Max Wind Speed 15 mph    
Max Gust Speed 20 mph    
Visibility 10 miles    
Events      
T = Trace of Precipitation, MM = Missing Value Source: NWS Daily Summary

Daily Weather History Graph

Daily Weather History Graph

Search for Another Location

Airport or City:

Astronomy

May. 01, 2014 Rise Set
Actual Time 6:15 AM CDT 7:46 PM CDT
Civil Twilight 5:49 AM CDT 8:13 PM CDT
Nautical Twilight 5:17 AM CDT 8:45 PM CDT
Astronomical Twilight 4:44 AM CDT 9:18 PM CDT
Moon 8:06 AM CDT (5/1) 10:17 PM CDT (5/1)
Length of Visible Light 14h 24m
Length of Day
13h 31m
Waxing Crescent, 7% of the Moon is Illuminated
May 1
Waxing Crescent
May 6
First Quarter
May 14
Full
May 21
Last Quarter
May 28
New

Hourly Weather History & Observations

Time (CDT) Temp. Windchill Dew Point Humidity Pressure Visibility Wind Dir Wind Speed Gust Speed Precip Events Conditions
12:53 AM 46.9 °F - 43.0 °F 86% 30.12 in 10.0 mi Calm Calm - N/A   Clear
1:53 AM 48.0 °F - 43.0 °F 83% 30.11 in 10.0 mi SW 3.5 mph - N/A   Clear
2:53 AM 46.9 °F - 43.0 °F 86% 30.10 in 10.0 mi Calm Calm - N/A   Clear
3:53 AM 46.9 °F - 43.0 °F 86% 30.12 in 10.0 mi SW 3.5 mph - N/A   Clear
4:53 AM 45.0 °F 41.8 °F 41.0 °F 86% 30.11 in 10.0 mi SW 5.8 mph - N/A   Clear
5:53 AM 44.1 °F 40.8 °F 42.1 °F 93% 30.11 in 10.0 mi SW 5.8 mph - N/A   Clear
6:53 AM 46.0 °F 42.5 °F 43.0 °F 89% 30.12 in 9.0 mi WSW 6.9 mph - N/A   Clear
7:53 AM 52.0 °F - 46.9 °F 83% 30.13 in 10.0 mi WSW 5.8 mph - N/A   Clear
8:53 AM 57.0 °F - 45.0 °F 64% 30.12 in 10.0 mi WSW 5.8 mph - N/A   Clear
9:53 AM 62.1 °F - 43.0 °F 50% 30.12 in 10.0 mi West 9.2 mph - N/A   Clear
10:53 AM 64.0 °F - 39.9 °F 41% 30.12 in 10.0 mi West 12.7 mph - N/A   Clear
11:53 AM 64.9 °F - 36.0 °F 34% 30.11 in 10.0 mi West 13.8 mph 18.4 mph N/A   Clear
12:53 PM 66.0 °F - 37.0 °F 34% 30.09 in 10.0 mi WSW 4.6 mph - N/A   Clear
1:53 PM 66.9 °F - 37.9 °F 34% 30.07 in 10.0 mi WSW 6.9 mph - N/A   Clear
2:53 PM 68.0 °F - 37.9 °F 33% 30.05 in 10.0 mi WNW 8.1 mph - N/A   Clear
3:53 PM 69.1 °F - 37.0 °F 31% 30.02 in 10.0 mi West 9.2 mph - N/A   Clear
4:53 PM 69.1 °F - 37.0 °F 31% 30.01 in 10.0 mi Variable 5.8 mph - N/A   Clear
5:53 PM 68.0 °F - 37.9 °F 33% 30.01 in 10.0 mi West 8.1 mph - N/A   Clear
6:53 PM 68.0 °F - 37.0 °F 32% 30.01 in 10.0 mi West 5.8 mph - N/A   Clear
7:53 PM 64.0 °F - 39.9 °F 41% 30.02 in 10.0 mi West 4.6 mph - N/A   Clear
8:53 PM 64.0 °F - 41.0 °F 43% 30.03 in 10.0 mi WNW 4.6 mph - N/A   Clear
9:53 PM 57.0 °F - 46.9 °F 69% 30.05 in 10.0 mi Calm Calm - N/A   Clear
10:53 PM 55.9 °F - 46.9 °F 72% 30.05 in 10.0 mi Calm Calm - N/A   Clear
11:53 PM 55.0 °F - 46.9 °F 74% 30.04 in 10.0 mi Calm Calm - N/A   Clear